TimeEST,TemperatureF,Dew PointF,Humidity,Sea Level PressureIn,VisibilityMPH,Wind Direction,Wind SpeedMPH,Gust SpeedMPH,PrecipitationIn,Events,Conditions,WindDirDegrees,DateUTC
12:53 AM,72.0,63.0,73,30.07,10.0,NE,4.6,-,N/A,,Scattered Clouds,40,2012-11-18 05:53:00
1:53 AM,71.6,62.6,73,30.07,10.0,NNE,4.6,-,N/A,,Clear,30,2012-11-18 06:53:00
2:53 AM,64.9,61.0,87,30.07,10.0,WNW,5.8,-,N/A,,Clear,300,2012-11-18 07:53:00
3:53 AM,64.0,62.1,93,30.06,10.0,NW,3.5,-,N/A,,Clear,310,2012-11-18 08:53:00
4:53 AM,64.0,62.1,93,30.06,9.0,NW,6.9,-,N/A,,Clear,320,2012-11-18 09:53:00
5:53 AM,64.0,63.0,96,30.09,8.0,NW,4.6,-,N/A,,Mostly Cloudy,310,2012-11-18 10:53:00
6:12 AM,64.4,62.6,94,30.09,7.0,NNW,6.9,-,N/A,,Mostly Cloudy,330,2012-11-18 11:12:00
6:53 AM,64.9,64.0,97,30.10,6.0,NNW,5.8,-,N/A,,Overcast,330,2012-11-18 11:53:00
7:04 AM,64.4,64.4,100,30.10,6.0,NW,5.8,-,N/A,,Overcast,320,2012-11-18 12:04:00
7:53 AM,69.1,64.9,87,30.11,7.0,North,9.2,18.4,N/A,,Overcast,350,2012-11-18 12:53:00
8:53 AM,71.1,64.9,81,30.13,8.0,NNW,6.9,19.6,N/A,,Overcast,340,2012-11-18 13:53:00
9:40 AM,71.6,64.4,78,30.13,9.0,NNW,10.4,17.3,N/A,,Overcast,340,2012-11-18 14:40:00
9:53 AM,73.0,64.0,73,30.13,10.0,North,16.1,24.2,N/A,,Mostly Cloudy,360,2012-11-18 14:53:00
10:53 AM,73.9,64.0,71,30.13,10.0,North,16.1,25.3,N/A,,Scattered Clouds,10,2012-11-18 15:53:00
11:53 AM,75.9,64.9,69,30.12,10.0,North,15.0,24.2,N/A,,Scattered Clouds,350,2012-11-18 16:53:00
12:00 PM,73.4,64.4,73,30.12,10.0,North,8.1,24.2,N/A,,Overcast,360,2012-11-18 17:00:00
12:53 PM,75.0,63.0,66,30.11,10.0,North,11.5,21.9,N/A,,Mostly Cloudy,350,2012-11-18 17:53:00
1:53 PM,73.9,62.1,66,30.09,10.0,North,15.0,23.0,N/A,,Mostly Cloudy,350,2012-11-18 18:53:00
2:53 PM,73.9,62.1,66,30.08,10.0,North,11.5,19.6,N/A,,Scattered Clouds,350,2012-11-18 19:53:00
3:53 PM,73.0,62.1,68,30.09,10.0,North,12.7,19.6,N/A,,Partly Cloudy,360,2012-11-18 20:53:00
4:53 PM,71.1,62.1,73,30.10,10.0,North,10.4,21.9,N/A,,Partly Cloudy,360,2012-11-18 21:53:00
5:53 PM,68.0,62.1,81,30.10,10.0,North,8.1,-,N/A,,Partly Cloudy,360,2012-11-18 22:53:00
6:20 PM,66.2,62.6,88,30.12,10.0,North,5.8,-,N/A,,Mostly Cloudy,350,2012-11-18 23:20:00
6:35 PM,66.2,62.6,88,30.12,10.0,North,9.2,16.1,N/A,,Overcast,350,2012-11-18 23:35:00
6:53 PM,66.9,62.1,84,30.13,10.0,North,9.2,16.1,N/A,,Overcast,350,2012-11-18 23:53:00
7:00 PM,66.2,62.6,88,30.13,10.0,North,9.2,17.3,N/A,,Mostly Cloudy,360,2012-11-19 00:00:00
7:53 PM,66.0,61.0,84,30.14,10.0,North,8.1,17.3,N/A,,Overcast,350,2012-11-19 00:53:00
8:43 PM,64.4,60.8,88,30.15,10.0,NNW,8.1,-,N/A,,Scattered Clouds,340,2012-11-19 01:43:00
8:53 PM,64.9,60.1,84,30.16,10.0,North,6.9,-,N/A,,Partly Cloudy,350,2012-11-19 01:53:00
9:53 PM,64.9,57.9,78,30.16,10.0,North,5.8,-,N/A,,Clear,350,2012-11-19 02:53:00
10:53 PM,63.0,57.0,81,30.15,10.0,North,4.6,-,N/A,,Clear,350,2012-11-19 03:53:00
11:53 PM,61.0,57.0,87,30.14,10.0,Calm,Calm,-,N/A,,Scattered Clouds,0,2012-11-19 04:53:00